| time (UTC) | temp C | wind direction | speed KPH | gust KPH | rain 1hr cm | rain 24hr cm | rain mn cm | humidity % | barometer mb |
| 20260506191516 | 15 | 3 | 0.0 | 6.4 | 0.00 | 0.10 | 0.10 | 68 | 1012.4 |
| 20260506191012 | 15 | 71 | 1.6 | 1.6 | 0.00 | 0.10 | 0.10 | 69 | 1012.1 |
| 20260506190509 | 15 | 90 | 1.6 | 4.8 | 0.00 | 0.10 | 0.10 | 69 | 1012.1 |
| 20260506190006 | 15 | 44 | 0.0 | 3.2 | 0.00 | 0.10 | 0.10 | 71 | 1012.2 |
| 20260506185504 | 14 | 42 | 0.0 | 1.6 | 0.00 | 0.10 | 0.10 | 71 | 1012.2 |
| 20260506185000 | 14 | 319 | 0.0 | 1.6 | 0.00 | 0.10 | 0.10 | 71 | 1012.4 |
| 20260506184457 | 14 | 324 | 0.0 | 3.2 | 0.00 | 0.10 | 0.10 | 71 | 1012.4 |
| 20260506183954 | 14 | 95 | 1.6 | 3.2 | 0.00 | 0.10 | 0.10 | 71 | 1012.6 |
| 20260506183449 | 14 | 0 | 1.6 | 3.2 | 0.00 | 0.10 | 0.10 | 72 | 1012.3 |
| 20260506182946 | 14 | 344 | 0.0 | 1.6 | 0.00 | 0.10 | 0.10 | 72 | 1012.1 |
| 20260506182444 | 14 | 346 | 1.6 | 3.2 | 0.00 | 0.10 | 0.10 | 72 | 1011.8 |
| 20260506181941 | 14 | 350 | 1.6 | 12.9 | 0.00 | 0.10 | 0.10 | 72 | 1011.5 |
| 20260506181439 | 14 | 305 | 1.6 | 6.4 | 0.00 | 0.10 | 0.10 | 70 | 1011.2 |
| 20260506180935 | 14 | 52 | 1.6 | 4.8 | 0.00 | 0.10 | 0.10 | 72 | 1011.0 |
| 20260506180432 | 14 | 357 | 1.6 | 6.4 | 0.00 | 0.10 | 0.10 | 73 | 1010.7 |
| 20260506175929 | 14 | 27 | 1.6 | 9.7 | 0.00 | 0.10 | 0.10 | 73 | 1011.4 |
| 20260506175426 | 13 | 124 | 1.6 | 3.2 | 0.00 | 0.10 | 0.10 | 74 | 1011.2 |
| 20260506174922 | 13 | 76 | 4.8 | 9.7 | 0.00 | 0.10 | 0.10 | 74 | 1011.3 |
| 20260506174420 | 13 | 47 | 3.2 | 6.4 | 0.00 | 0.10 | 0.10 | 75 | 1011.3 |
| 20260506173917 | 13 | 227 | 0.0 | 1.6 | 0.00 | 0.10 | 0.10 | 77 | 1011.4 |
| 20260506173414 | 13 | 0 | 4.8 | 11.3 | 0.00 | 0.10 | 0.10 | 76 | 1011.6 |
| 20260506172911 | 12 | 143 | 4.8 | 4.8 | 0.00 | 0.10 | 0.10 | 78 | 1012.0 |
| 20260506172407 | 12 | 46 | 3.2 | 9.7 | 0.00 | 0.10 | 0.10 | 78 | 1011.9 |
| 20260506171905 | 12 | 317 | 1.6 | 12.9 | 0.00 | 0.10 | 0.10 | 78 | 1011.8 |
| 20260506171402 | 12 | 71 | 3.2 | 4.8 | 0.00 | 0.10 | 0.10 | 78 | 1011.6 |
| 20260506170900 | 12 | 11 | 1.6 | 11.3 | 0.00 | 0.10 | 0.10 | 78 | 1011.6 |
| 20260506170356 | 12 | 93 | 1.6 | 3.2 | 0.00 | 0.10 | 0.10 | 80 | 1011.7 |
| 20260506165855 | 12 | 37 | 3.2 | 9.7 | 0.00 | 0.10 | 0.10 | 79 | 1011.4 |
| 20260506165353 | 12 | 53 | 4.8 | 11.3 | 0.00 | 0.10 | 0.10 | 80 | 1011.3 |
| 20260506164849 | 12 | 16 | 6.4 | 9.7 | 0.00 | 0.10 | 0.10 | 80 | 1011.2 |
| 20260506164345 | 12 | 326 | 3.2 | 9.7 | 0.00 | 0.10 | 0.10 | 80 | 1011.7 |
| 20260506163843 | 12 | 29 | 1.6 | 4.8 | 0.00 | 0.10 | 0.10 | 82 | 1011.8 |
| 20260506163337 | 12 | 103 | 3.2 | 4.8 | 0.00 | 0.10 | 0.10 | 82 | 1011.7 |
| 20260506162833 | 12 | 310 | 0.0 | 11.3 | 0.00 | 0.10 | 0.10 | 83 | 1011.9 |
| 20260506162331 | 12 | 35 | 3.2 | 4.8 | 0.00 | 0.10 | 0.10 | 83 | 1011.9 |
| 20260506161828 | 12 | 11 | 0.0 | 11.3 | 0.00 | 0.10 | 0.10 | 82 | 1012.0 |
| 20260506161326 | 12 | 121 | 3.2 | 4.8 | 0.00 | 0.10 | 0.10 | 83 | 1011.7 |
| 20260506160823 | 12 | 354 | 0.0 | 3.2 | 0.00 | 0.10 | 0.10 | 83 | 1011.7 |
| 20260506160320 | 12 | 340 | 0.0 | 6.4 | 0.00 | 0.10 | 0.10 | 84 | 1011.7 |
| 20260506155819 | 12 | 52 | 1.6 | 6.4 | 0.00 | 0.10 | 0.10 | 83 | 1011.9 |
| 20260506155315 | 12 | 21 | 12.9 | 16.1 | 0.00 | 0.10 | 0.10 | 84 | 1011.3 |
| 20260506153427 | 12 | 333 | 4.8 | 9.7 | 0.00 | 0.10 | 0.10 | 86 | 1010.7 |
| 20260506152925 | 11 | 50 | 3.2 | 6.4 | 0.00 | 0.10 | 0.10 | 88 | 1011.1 |
| 20260506152421 | 11 | 4 | 4.8 | 9.7 | 0.00 | 0.10 | 0.10 | 88 | 1011.1 |
| 20260506151920 | 11 | 89 | 0.0 | 4.8 | 0.00 | 0.10 | 0.10 | 89 | 1011.7 |
| 20260506151416 | 11 | 319 | 1.6 | 4.8 | 0.00 | 0.10 | 0.10 | 89 | 1012.0 |
| 20260506150914 | 11 | 318 | 1.6 | 3.2 | 0.00 | 0.10 | 0.10 | 88 | 1012.4 |
| 20260506150410 | 11 | 262 | 0.0 | 1.6 | 0.18 | 0.10 | 0.10 | 88 | 1013.2 |
| 20260506145907 | 11 | 336 | 0.0 | 1.6 | 0.43 | 0.08 | 0.08 | 87 | 1012.3 |
| 20260506145403 | 11 | 36 | 3.2 | 3.2 | 0.30 | 0.05 | 0.05 | 86 | 1011.8 |
| 20260506144901 | 11 | 52 | 0.0 | 1.6 | 0.00 | 0.00 | 0.00 | 84 | 1013.3 |
| 20260506144357 | 11 | 81 | 0.0 | 1.6 | 0.00 | 0.00 | 0.00 | 83 | 1013.4 |
| 20260506143856 | 11 | 306 | 0.0 | 3.2 | 0.00 | 0.00 | 0.00 | 81 | 1013.0 |
| 20260506143352 | 11 | 24 | 0.0 | 1.6 | 0.00 | 0.00 | 0.00 | 82 | 1012.9 |
| 20260506142851 | 11 | 8 | 0.0 | 1.6 | 0.00 | 0.00 | 0.00 | 82 | 1013.3 |
| 20260506142348 | 11 | 20 | 3.2 | 4.8 | 0.00 | 0.00 | 0.00 | 82 | 1012.5 |
| 20260506141846 | 11 | 35 | 1.6 | 9.7 | 0.00 | 0.00 | 0.00 | 82 | 1011.6 |
| 20260506141344 | 11 | 5 | 3.2 | 9.7 | 0.00 | 0.00 | 0.00 | 82 | 1010.7 |
| 20260506140842 | 11 | 308 | 3.2 | 3.2 | 0.00 | 0.00 | 0.00 | 82 | 1011.2 |
| 20260506140339 | 11 | 20 | 3.2 | 6.4 | 0.00 | 0.00 | 0.00 | 81 | 1011.5 |
| 20260506135836 | 11 | 339 | 1.6 | 6.4 | 0.00 | 0.00 | 0.00 | 79 | 1011.7 |
| 20260506135332 | 11 | 349 | 0.0 | 1.6 | 0.00 | 0.00 | 0.00 | 80 | 1012.3 |
| 20260506134828 | 11 | 356 | 0.0 | 3.2 | 0.00 | 0.00 | 0.00 | 79 | 1012.2 |
| 20260506134325 | 11 | 308 | 1.6 | 3.2 | 0.00 | 0.00 | 0.00 | 79 | 1011.7 |
| 20260506133822 | 11 | 344 | 3.2 | 6.4 | 0.00 | 0.00 | 0.00 | 79 | 1011.6 |
| 20260506133319 | 11 | 25 | 1.6 | 3.2 | 0.00 | 0.00 | 0.00 | 79 | 1011.4 |
| 20260506132816 | 11 | 312 | 3.2 | 4.8 | 0.00 | 0.00 | 0.00 | 78 | 1011.3 |
| 20260506132313 | 11 | 339 | 0.0 | 1.6 | 0.00 | 0.00 | 0.00 | 78 | 1011.2 |
| 20260506131811 | 11 | 356 | 0.0 | 3.2 | 0.00 | 0.00 | 0.00 | 78 | 1010.9 |
| 20260506131306 | 11 | 337 | 1.6 | 4.8 | 0.00 | 0.00 | 0.00 | 78 | 1011.0 |
| 20260506130804 | 11 | 24 | 3.2 | 4.8 | 0.00 | 0.00 | 0.00 | 78 | 1011.0 |
| 20260506130300 | 11 | 17 | 0.0 | 6.4 | 0.00 | 0.00 | 0.00 | 78 | 1011.0 |
| 20260506125759 | 11 | 4 | 8.0 | 9.7 | 0.00 | 0.00 | 0.00 | 77 | 1010.8 |
| 20260506125256 | 12 | 320 | 3.2 | 11.3 | 0.00 | 0.00 | 0.00 | 77 | 1010.5 |
| 20260506124754 | 12 | 329 | 1.6 | 3.2 | 0.00 | 0.00 | 0.00 | 77 | 1010.1 |
| 20260506124251 | 12 | 21 | 3.2 | 9.7 | 0.00 | 0.00 | 0.00 | 76 | 1010.2 |
| 20260506123749 | 12 | 63 | 4.8 | 6.4 | 0.00 | 0.00 | 0.00 | 75 | 1010.3 |
| 20260506123248 | 12 | 352 | 3.2 | 6.4 | 0.00 | 0.00 | 0.00 | 74 | 1010.2 |
| 20260506122744 | 12 | 332 | 1.6 | 3.2 | 0.00 | 0.00 | 0.00 | 74 | 1010.1 |
| 20260506122241 | 12 | 12 | 3.2 | 6.4 | 0.00 | 0.00 | 0.00 | 73 | 1010.5 |
| 20260506121739 | 12 | 15 | 3.2 | 12.9 | 0.00 | 0.00 | 0.00 | 72 | 1009.9 |
| 20260506121236 | 12 | 22 | 1.6 | 4.8 | 0.00 | 0.00 | 0.00 | 72 | 1010.3 |
| 20260506120733 | 12 | 130 | 4.8 | 12.9 | 0.00 | 0.00 | 0.00 | 72 | 1009.9 |
| 20260506120231 | 12 | 301 | 1.6 | 3.2 | 0.00 | 0.00 | 0.00 | 72 | 1009.9 |
| 20260506115728 | 13 | 34 | 3.2 | 4.8 | 0.00 | 0.00 | 0.00 | 72 | 1009.8 |
| 20260506115227 | 13 | 323 | 1.6 | 4.8 | 0.00 | 0.00 | 0.00 | 71 | 1010.0 |
| 20260506114724 | 13 | 343 | 1.6 | 3.2 | 0.00 | 0.00 | 0.00 | 71 | 1009.8 |
| 20260506114221 | 13 | 38 | 3.2 | 3.2 | 0.00 | 0.00 | 0.00 | 71 | 1009.8 |
| 20260506113720 | 13 | 342 | 3.2 | 4.8 | 0.00 | 0.00 | 0.00 | 71 | 1009.5 |
| 20260506113217 | 13 | 338 | 1.6 | 3.2 | 0.00 | 0.00 | 0.00 | 71 | 1009.6 |
| 20260506112713 | 13 | 94 | 0.0 | 4.8 | 0.00 | 0.00 | 0.00 | 71 | 1009.3 |
| 20260506112211 | 13 | 78 | 3.2 | 4.8 | 0.00 | 0.00 | 0.00 | 70 | 1009.5 |
| 20260506111708 | 13 | 322 | 0.0 | 4.8 | 0.00 | 0.00 | 0.00 | 70 | 1009.1 |
| 20260506111206 | 13 | 348 | 0.0 | 4.8 | 0.00 | 0.00 | 0.00 | 71 | 1009.3 |
| 20260506110703 | 13 | 236 | 6.4 | 9.7 | 0.00 | 0.00 | 0.00 | 70 | 1008.9 |
| 20260506110200 | 13 | 325 | 0.0 | 3.2 | 0.00 | 0.00 | 0.00 | 72 | 1008.6 |
| 20260506105657 | 13 | 19 | 0.0 | 6.4 | 0.00 | 0.00 | 0.00 | 71 | 1008.8 |
| 20260506105154 | 13 | 264 | 1.6 | 4.8 | 0.00 | 0.00 | 0.00 | 73 | 1009.0 |
| 20260506104652 | 13 | 117 | 1.6 | 4.8 | 0.00 | 0.00 | 0.00 | 72 | 1008.8 |
| 20260506104149 | 13 | 3 | 1.6 | 4.8 | 0.00 | 0.00 | 0.00 | 72 | 1008.7 |
| 20260506103646 | 13 | 79 | 3.2 | 6.4 | 0.00 | 0.00 | 0.00 | 72 | 1008.7 |
| 20260506103143 | 13 | 321 | 1.6 | 4.8 | 0.00 | 0.00 | 0.00 | 72 | 1008.4 |
| 20260506102641 | 13 | 27 | 3.2 | 6.4 | 0.00 | 0.00 | 0.00 | 71 | 1008.2 |
| 20260506102138 | 13 | 13 | 0.0 | 4.8 | 0.00 | 0.00 | 0.00 | 72 | 1008.4 |
| 20260506101635 | 13 | 94 | 0.0 | 11.3 | 0.00 | 0.00 | 0.00 | 72 | 1008.3 |
| 20260506101132 | 14 | 52 | 1.6 | 4.8 | 0.00 | 0.00 | 0.00 | 71 | 1008.2 |
| 20260506100631 | 14 | 9 | 1.6 | 3.2 | 0.00 | 0.00 | 0.00 | 72 | 1008.1 |
| 20260506100128 | 13 | 44 | 3.2 | 3.2 | 0.00 | 0.00 | 0.00 | 72 | 1008.0 |
| 20260506095627 | 14 | 63 | 1.6 | 4.8 | 0.00 | 0.00 | 0.00 | 72 | 1008.0 |
| 20260506095123 | 14 | 45 | 4.8 | 9.7 | 0.00 | 0.00 | 0.00 | 72 | 1007.8 |
| 20260506094620 | 14 | 338 | 3.2 | 4.8 | 0.00 | 0.00 | 0.00 | 72 | 1007.7 |
| 20260506094118 | 14 | 164 | 0.0 | 3.2 | 0.00 | 0.00 | 0.00 | 73 | 1007.5 |
| 20260506093616 | 14 | 20 | 1.6 | 3.2 | 0.00 | 0.00 | 0.00 | 73 | 1007.8 |
| 20260506093113 | 14 | 14 | 1.6 | 3.2 | 0.00 | 0.00 | 0.00 | 73 | 1007.9 |
| 20260506092611 | 14 | 56 | 0.0 | 1.6 | 0.00 | 0.00 | 0.00 | 73 | 1007.7 |
| 20260506092107 | 14 | 333 | 0.0 | 4.8 | 0.00 | 0.00 | 0.00 | 73 | 1007.9 |
| 20260506091606 | 14 | 19 | 0.0 | 6.4 | 0.00 | 0.00 | 0.00 | 73 | 1007.8 |
| 20260506091103 | 14 | 60 | 0.0 | 3.2 | 0.00 | 0.00 | 0.00 | 73 | 1007.6 |
| 20260506090601 | 14 | 23 | 0.0 | 1.6 | 0.00 | 0.00 | 0.00 | 73 | 1007.7 |
| 20260506090056 | 14 | 331 | 3.2 | 4.8 | 0.00 | 0.00 | 0.00 | 72 | 1007.6 |
| 20260506085554 | 14 | 352 | 1.6 | 3.2 | 0.00 | 0.00 | 0.00 | 72 | 1007.5 |
| 20260506085050 | 15 | 2 | 3.2 | 6.4 | 0.00 | 0.00 | 0.00 | 73 | 1007.6 |
| 20260506084547 | 15 | 30 | 1.6 | 4.8 | 0.00 | 0.00 | 0.00 | 73 | 1007.7 |
| 20260506084043 | 15 | 15 | 1.6 | 1.6 | 0.00 | 0.00 | 0.00 | 73 | 1007.5 |
| 20260506083541 | 15 | 64 | 0.0 | 1.6 | 0.00 | 0.00 | 0.00 | 73 | 1007.4 |
| 20260506083038 | 15 | 352 | 1.6 | 3.2 | 0.00 | 0.00 | 0.00 | 73 | 1007.4 |
| 20260506082535 | 15 | 31 | 1.6 | 1.6 | 0.00 | 0.00 | 0.00 | 73 | 1007.2 |
| 20260506082030 | 15 | 1 | 0.0 | 1.6 | 0.00 | 0.00 | 0.00 | 73 | 1007.4 |
| 20260506081529 | 15 | 104 | 0.0 | 1.6 | 0.00 | 0.00 | 0.00 | 73 | 1007.3 |
| 20260506081026 | 15 | 82 | 0.0 | 3.2 | 0.00 | 0.00 | 0.00 | 74 | 1007.3 |
| 20260506080523 | 15 | 78 | 1.6 | 3.2 | 0.00 | 0.00 | 0.00 | 74 | 1007.2 |
| 20260506073507 | 15 | 66 | 3.2 | 4.8 | 0.00 | 0.00 | 0.00 | 74 | 1007.0 |
| 20260506073004 | 15 | 337 | 0.0 | 4.8 | 0.00 | 0.00 | 0.00 | 75 | 1007.0 |
| 20260506072501 | 15 | 33 | 6.4 | 9.7 | 0.00 | 0.00 | 0.00 | 75 | 1006.9 |
| 20260506071959 | 15 | 57 | 1.6 | 4.8 | 0.00 | 0.00 | 0.00 | 75 | 1006.9 |
| 20260506071456 | 15 | 46 | 4.8 | 6.4 | 0.00 | 0.00 | 0.00 | 74 | 1006.9 |
| 20260506070953 | 15 | 45 | 3.2 | 4.8 | 0.00 | 0.00 | 0.00 | 74 | 1006.9 |
| 20260506070450 | 15 | 324 | 0.0 | 1.6 | 0.00 | 0.00 | 0.00 | 74 | 1006.9 |
| 20260506062428 | 16 | 285 | 0.0 | 4.8 | 0.00 | 0.00 | 0.00 | 75 | 1006.8 |
| 20260506061923 | 16 | 44 | 0.0 | 3.2 | 0.00 | 0.00 | 0.00 | 75 | 1006.9 |
| 20260506061420 | 16 | 40 | 0.0 | 4.8 | 0.00 | 0.00 | 0.00 | 75 | 1006.7 |
| 20260506060918 | 16 | 349 | 3.2 | 3.2 | 0.00 | 0.00 | 0.00 | 74 | 1006.8 |
| 20260506060416 | 16 | 28 | 1.6 | 3.2 | 0.00 | 0.00 | 0.00 | 74 | 1006.9 |
| 20260506051348 | 17 | 343 | 3.2 | 9.7 | 0.00 | 0.00 | 0.00 | 72 | 1006.9 |
| 20260506050845 | 17 | 13 | 0.0 | 4.8 | 0.00 | 0.00 | 0.00 | 73 | 1006.9 |
| 20260506050343 | 17 | 1 | 1.6 | 3.2 | 0.00 | 0.00 | 0.00 | 72 | 1006.9 |
| 20260506044833 | 17 | 245 | 1.6 | 6.4 | 0.00 | 0.00 | 0.00 | 71 | 1007.1 |
| 20260506044331 | 17 | 82 | 1.6 | 4.8 | 0.00 | 0.00 | 0.00 | 71 | 1007.0 |
| 20260506043828 | 17 | 94 | 0.0 | 4.8 | 0.00 | 0.00 | 0.00 | 72 | 1006.6 |
| 20260506043325 | 18 | 1 | 1.6 | 4.8 | 0.00 | 0.00 | 0.00 | 71 | 1006.8 |
| 20260506042823 | 18 | 324 | 1.6 | 3.2 | 0.00 | 0.00 | 0.00 | 71 | 1006.8 |
| 20260506042322 | 18 | 68 | 1.6 | 9.7 | 0.00 | 0.00 | 0.00 | 71 | 1006.8 |
| 20260506041821 | 18 | 317 | 1.6 | 3.2 | 0.00 | 0.00 | 0.00 | 71 | 1006.9 |
| 20260506041317 | 18 | 95 | 3.2 | 4.8 | 0.00 | 0.00 | 0.00 | 71 | 1007.1 |
| 20260506040814 | 18 | 311 | 0.0 | 3.2 | 0.00 | 0.00 | 0.00 | 70 | 1006.9 |
| 20260506040312 | 19 | 18 | 1.6 | 3.2 | 0.00 | 0.00 | 0.00 | 70 | 1006.9 |
| 20260506035808 | 19 | 29 | 1.6 | 9.7 | 0.00 | 0.00 | 0.00 | 69 | 1006.7 |
| 20260506035306 | 19 | 295 | 1.6 | 4.8 | 0.00 | 0.00 | 0.00 | 69 | 1006.7 |
| 20260506034802 | 19 | 44 | 1.6 | 3.2 | 0.00 | 0.00 | 0.00 | 69 | 1006.3 |
| 20260506034259 | 19 | 336 | 3.2 | 3.2 | 0.00 | 0.00 | 0.00 | 69 | 1006.3 |
| 20260506033756 | 19 | 52 | 6.4 | 9.7 | 0.00 | 0.00 | 0.00 | 68 | 1006.1 |
| 20260506033253 | 19 | 50 | 4.8 | 6.4 | 0.00 | 0.00 | 0.00 | 68 | 1006.0 |
| 20260506032750 | 19 | 32 | 4.8 | 12.9 | 0.00 | 0.00 | 0.00 | 68 | 1005.9 |
| 20260506032247 | 20 | 338 | 3.2 | 6.4 | 0.00 | 0.00 | 0.00 | 67 | 1006.0 |
| 20260506031743 | 20 | 11 | 1.6 | 9.7 | 0.00 | 0.00 | 0.00 | 67 | 1005.8 |
| 20260506031241 | 20 | 339 | 1.6 | 3.2 | 0.00 | 0.00 | 0.00 | 67 | 1005.3 |
| 20260506030739 | 20 | 344 | 3.2 | 4.8 | 0.00 | 0.00 | 0.00 | 66 | 1005.7 |
| 20260506030236 | 20 | 87 | 3.2 | 6.4 | 0.00 | 0.00 | 0.00 | 67 | 1005.3 |
| 20260506025733 | 20 | 352 | 0.0 | 3.2 | 0.00 | 0.00 | 0.00 | 67 | 1005.3 |
| 20260506025230 | 20 | 302 | 1.6 | 6.4 | 0.00 | 0.00 | 0.00 | 66 | 1005.2 |
| 20260506024726 | 20 | 90 | 1.6 | 6.4 | 0.00 | 0.00 | 0.00 | 66 | 1005.0 |
| 20260506024223 | 20 | 24 | 1.6 | 4.8 | 0.00 | 0.00 | 0.00 | 66 | 1005.2 |
| 20260506023719 | 20 | 39 | 0.0 | 6.4 | 0.00 | 0.00 | 0.00 | 66 | 1004.9 |
| 20260506023217 | 20 | 281 | 3.2 | 6.4 | 0.00 | 0.00 | 0.00 | 66 | 1004.7 |
| 20260506022713 | 21 | 91 | 3.2 | 4.8 | 0.00 | 0.00 | 0.00 | 66 | 1005.0 |
| 20260506022211 | 21 | 32 | 3.2 | 4.8 | 0.00 | 0.00 | 0.00 | 65 | 1004.7 |
| 20260506021709 | 21 | 56 | 1.6 | 9.7 | 0.00 | 0.00 | 0.00 | 65 | 1004.5 |
| 20260506021206 | 21 | 52 | 4.8 | 6.4 | 0.00 | 0.00 | 0.00 | 64 | 1004.7 |
| 20260506020703 | 21 | 98 | 1.6 | 14.5 | 0.00 | 0.00 | 0.00 | 65 | 1004.6 |
| 20260506020200 | 21 | 9 | 1.6 | 4.8 | 0.00 | 0.00 | 0.00 | 65 | 1004.2 |
| 20260506015658 | 21 | 25 | 1.6 | 4.8 | 0.00 | 0.00 | 0.00 | 65 | 1004.4 |
| 20260506015155 | 22 | 37 | 1.6 | 6.4 | 0.00 | 0.00 | 0.00 | 65 | 1004.2 |
| 20260506014652 | 22 | 20 | 1.6 | 3.2 | 0.00 | 0.00 | 0.00 | 64 | 1004.0 |
| 20260506014148 | 22 | 55 | 1.6 | 6.4 | 0.00 | 0.00 | 0.00 | 64 | 1003.6 |
| 20260506013646 | 22 | 49 | 1.6 | 4.8 | 0.00 | 0.00 | 0.00 | 63 | 1003.9 |
| 20260506013143 | 22 | 9 | 3.2 | 3.2 | 0.00 | 0.00 | 0.00 | 63 | 1003.8 |
| 20260506012639 | 22 | 338 | 0.0 | 6.4 | 0.00 | 0.00 | 0.00 | 63 | 1003.3 |
| 20260506012136 | 22 | 60 | 1.6 | 6.4 | 0.00 | 0.00 | 0.00 | 63 | 1003.5 |
| 20260506011633 | 22 | 2 | 3.2 | 4.8 | 0.00 | 0.00 | 0.00 | 62 | 1003.2 |
| 20260506011129 | 23 | 36 | 3.2 | 9.7 | 0.00 | 0.00 | 0.00 | 62 | 1003.0 |
| 20260506010628 | 23 | 25 | 0.0 | 4.8 | 0.00 | 0.00 | 0.00 | 61 | 1002.8 |
| 20260506010125 | 23 | 64 | 0.0 | 3.2 | 0.00 | 0.00 | 0.00 | 61 | 1003.0 |
| 20260506005622 | 23 | 53 | 1.6 | 4.8 | 0.00 | 0.00 | 0.00 | 61 | 1003.1 |
| 20260506005118 | 23 | 33 | 1.6 | 3.2 | 0.00 | 0.00 | 0.00 | 61 | 1002.6 |
| 20260506004615 | 23 | 326 | 1.6 | 3.2 | 0.00 | 0.00 | 0.00 | 60 | 1002.9 |
| 20260506004112 | 23 | 59 | 3.2 | 4.8 | 0.00 | 0.00 | 0.00 | 60 | 1002.9 |
| 20260506003608 | 23 | 13 | 1.6 | 4.8 | 0.00 | 0.00 | 0.00 | 60 | 1002.8 |
| 20260506003104 | 24 | 331 | 3.2 | 3.2 | 0.00 | 0.00 | 0.00 | 59 | 1002.9 |
| 20260506002600 | 24 | 48 | 1.6 | 4.8 | 0.00 | 0.00 | 0.00 | 59 | 1002.3 |
| 20260506002057 | 24 | 334 | 3.2 | 3.2 | 0.00 | 0.00 | 0.00 | 58 | 1002.6 |
| 20260506001553 | 25 | 77 | 0.0 | 3.2 | 0.00 | 0.00 | 0.00 | 57 | 1002.5 |
| 20260506001050 | 25 | 321 | 3.2 | 4.8 | 0.00 | 0.00 | 0.00 | 57 | 1002.4 |
| 20260506000547 | 25 | 30 | 3.2 | 9.7 | 0.00 | 0.00 | 0.00 | 56 | 1002.4 |
| 20260506000045 | 25 | 355 | 1.6 | 6.4 | 0.00 | 0.00 | 0.00 | 56 | 1002.5 |
| 20260505235543 | 25 | 59 | 1.6 | 4.8 | 0.00 | 0.00 | 0.00 | 55 | 1002.3 |
| 20260505235039 | 25 | 21 | 3.2 | 11.3 | 0.00 | 0.00 | 0.00 | 54 | 1002.3 |
| 20260505234536 | 26 | 61 | 1.6 | 6.4 | 0.00 | 0.00 | 0.00 | 54 | 1001.9 |
| 20260505234033 | 26 | 57 | 1.6 | 3.2 | 0.00 | 0.00 | 0.00 | 55 | 1002.2 |
| 20260505233530 | 26 | 345 | 3.2 | 6.4 | 0.00 | 0.00 | 0.00 | 54 | 1001.8 |
| 20260505233028 | 26 | 299 | 3.2 | 4.8 | 0.00 | 0.00 | 0.00 | 54 | 1002.0 |
| 20260505232526 | 26 | 46 | 3.2 | 6.4 | 0.00 | 0.00 | 0.00 | 54 | 1001.7 |
| 20260505232023 | 26 | 28 | 3.2 | 9.7 | 0.00 | 0.00 | 0.00 | 54 | 1001.7 |
| 20260505231520 | 26 | 49 | 3.2 | 6.4 | 0.00 | 0.00 | 0.00 | 55 | 1001.7 |
| 20260505231019 | 27 | 1 | 3.2 | 6.4 | 0.00 | 0.00 | 0.00 | 54 | 1001.7 |
| 20260505230515 | 27 | 33 | 6.4 | 11.3 | 0.00 | 0.00 | 0.00 | 54 | 1001.6 |
| 20260505230012 | 28 | 83 | 4.8 | 9.7 | 0.00 | 0.00 | 0.00 | 54 | 1001.6 |
| 20260505225509 | 28 | 60 | 6.4 | 12.9 | 0.00 | 0.00 | 0.00 | 54 | 1001.5 |
| 20260505225005 | 29 | 72 | 1.6 | 11.3 | 0.00 | 0.00 | 0.00 | 52 | 1001.5 |
| 20260505224502 | 29 | 349 | 0.0 | 6.4 | 0.00 | 0.00 | 0.00 | 48 | 1001.4 |
| 20260505223959 | 30 | 219 | 1.6 | 3.2 | 0.00 | 0.00 | 0.00 | 44 | 1001.3 |
| 20260505223456 | 30 | 337 | 1.6 | 3.2 | 0.00 | 0.00 | 0.00 | 42 | 1001.5 |
| 20260505222952 | 30 | 354 | 0.0 | 3.2 | 0.00 | 0.00 | 0.00 | 44 | 1001.1 |
| 20260505222449 | 30 | 62 | 1.6 | 3.2 | 0.00 | 0.00 | 0.00 | 44 | 1001.2 |
| 20260505221944 | 30 | 5 | 1.6 | 3.2 | 0.00 | 0.00 | 0.00 | 42 | 1001.0 |
| 20260505221442 | 31 | 52 | 3.2 | 4.8 | 0.00 | 0.00 | 0.00 | 42 | 1001.2 |
| 20260505220939 | 32 | 55 | 3.2 | 6.4 | 0.00 | 0.00 | 0.00 | 40 | 1001.1 |
| 20260505220436 | 33 | 293 | 1.6 | 3.2 | 0.00 | 0.00 | 0.00 | 39 | 1000.7 |
| 20260505215933 | 32 | 257 | 0.0 | 4.8 | 0.00 | 0.00 | 0.00 | 42 | 1000.8 |
| 20260505215431 | 32 | 228 | 4.8 | 4.8 | 0.00 | 0.00 | 0.00 | 39 | 1000.8 |
| 20260505214929 | 32 | 214 | 3.2 | 4.8 | 0.00 | 0.00 | 0.00 | 40 | 1000.9 |
| 20260505214426 | 33 | 224 | 1.6 | 6.4 | 0.00 | 0.00 | 0.00 | 39 | 1001.0 |
| 20260505213924 | 33 | 305 | 0.0 | 4.8 | 0.00 | 0.00 | 0.00 | 40 | 1000.9 |
| 20260505213421 | 33 | 300 | 1.6 | 3.2 | 0.00 | 0.00 | 0.00 | 38 | 1001.0 |
| 20260505212917 | 33 | 8 | 1.6 | 4.8 | 0.00 | 0.00 | 0.00 | 40 | 1000.7 |
| 20260505212414 | 32 | 267 | 3.2 | 6.4 | 0.00 | 0.00 | 0.00 | 40 | 1001.1 |
| 20260505211911 | 32 | 277 | 3.2 | 4.8 | 0.00 | 0.00 | 0.00 | 39 | 1001.1 |
| 20260505211409 | 32 | 218 | 3.2 | 9.7 | 0.00 | 0.00 | 0.00 | 41 | 1001.2 |
| 20260505210904 | 33 | 277 | 4.8 | 12.9 | 0.00 | 0.00 | 0.00 | 39 | 1001.2 |
| 20260505210402 | 32 | 263 | 1.6 | 6.4 | 0.00 | 0.00 | 0.00 | 38 | 1001.3 |
| 20260505205858 | 32 | 235 | 3.2 | 4.8 | 0.00 | 0.00 | 0.00 | 39 | 1001.2 |
| 20260505205357 | 32 | 248 | 1.6 | 14.5 | 0.00 | 0.00 | 0.00 | 40 | 1001.3 |
| 20260505204853 | 32 | 334 | 3.2 | 6.4 | 0.00 | 0.00 | 0.00 | 38 | 1001.6 |
| 20260505204351 | 32 | 197 | 6.4 | 9.7 | 0.00 | 0.00 | 0.00 | 40 | 1001.5 |
| 20260505203848 | 32 | 308 | 1.6 | 9.7 | 0.00 | 0.00 | 0.00 | 43 | 1001.7 |
| 20260505203344 | 32 | 278 | 0.0 | 1.6 | 0.00 | 0.00 | 0.00 | 45 | 1001.7 |
| 20260505202841 | 32 | 220 | 1.6 | 4.8 | 0.00 | 0.00 | 0.00 | 46 | 1001.8 |
| 20260505202337 | 32 | 215 | 1.6 | 3.2 | 0.00 | 0.00 | 0.00 | 45 | 1001.8 |
| 20260505201834 | 32 | 212 | 4.8 | 6.4 | 0.00 | 0.00 | 0.00 | 46 | 1001.8 |
| 20260505201332 | 32 | 242 | 3.2 | 6.4 | 0.00 | 0.00 | 0.00 | 46 | 1001.9 |
| 20260505200830 | 32 | 225 | 4.8 | 11.3 | 0.00 | 0.00 | 0.00 | 45 | 1001.9 |
| 20260505200326 | 32 | 252 | 6.4 | 12.9 | 0.00 | 0.00 | 0.00 | 45 | 1002.0 |
| 20260505195822 | 32 | 218 | 6.4 | 11.3 | 0.00 | 0.00 | 0.00 | 46 | 1001.9 |
| 20260505195319 | 32 | 247 | 3.2 | 4.8 | 0.00 | 0.00 | 0.00 | 45 | 1002.1 |
| 20260505194816 | 32 | 276 | 3.2 | 12.9 | 0.00 | 0.00 | 0.00 | 46 | 1002.1 |
| 20260505194313 | 32 | 257 | 8.0 | 11.3 | 0.00 | 0.00 | 0.00 | 44 | 1002.0 |
| 20260505193808 | 32 | 323 | 9.7 | 12.9 | 0.00 | 0.00 | 0.00 | 44 | 1002.0 |
| 20260505193307 | 32 | 284 | 4.8 | 11.3 | 0.00 | 0.00 | 0.00 | 47 | 1001.9 |
| 20260505192804 | 32 | 244 | 4.8 | 14.5 | 0.00 | 0.00 | 0.00 | 47 | 1001.9 |
| 20260505192305 | 31 | 317 | 3.2 | 12.9 | 0.00 | 0.00 | 0.00 | 47 | 1002.1 |